GW4073 Weather Reports


Display with metric or nautical units.
time (UTC)temp
F
wind
direction
speed
MPH
gust
MPH
rain 1hr
in
rain 24hr
in
rain mn
in
humidity
%
barometer
mb
20260510004331 77 313 3.0 5.0 0.00 0.00 0.00 19 1011.7
20260510003829 78 300 4.0 4.0 0.00 0.00 0.00 19 1012.2
20260510003326 79 283 2.0 5.0 0.00 0.00 0.00 19 1011.9
20260510002824 80 292 3.0 6.0 0.00 0.00 0.00 17 1011.9
20260510002322 81 305 3.0 4.0 0.00 0.00 0.00 18 1011.9
20260510001818 82 344 3.0 4.0 0.00 0.00 0.00 18 1011.8
20260510001316 81 290 4.0 5.0 0.00 0.00 0.00 17 1011.7
20260510000812 82 308 4.0 6.0 0.00 0.00 0.00 17 1011.7
20260510000311 82 288 3.0 6.0 0.00 0.00 0.00 18 1011.6
20260509235807 82 286 3.0 5.0 0.00 0.00 0.00 17 1011.5
20260509235306 82 308 3.0 4.0 0.00 0.00 0.00 18 1011.8
20260509234759 82 285 4.0 4.0 0.00 0.00 0.00 18 1011.7
20260509234256 82 294 3.0 6.0 0.00 0.00 0.00 17 1011.6
20260509233754 83 288 2.0 5.0 0.00 0.00 0.00 17 1011.8
20260509233251 83 282 3.0 4.0 0.00 0.00 0.00 18 1011.6
20260509232747 83 310 3.0 6.0 0.00 0.00 0.00 17 1011.7
20260509232245 83 299 4.0 6.0 0.00 0.00 0.00 18 1011.5
20260509231741 84 256 4.0 10.0 0.00 0.00 0.00 19 1011.4
20260509231238 83 252 2.0 4.0 0.00 0.00 0.00 20 1011.6
20260509230735 84 225 2.0 7.0 0.00 0.00 0.00 19 1011.7
20260509230232 83 249 4.0 6.0 0.00 0.00 0.00 19 1011.6
20260509225727 83 284 4.0 6.0 0.00 0.00 0.00 19 1011.9
20260509225224 82 324 5.0 6.0 0.00 0.00 0.00 18 1011.5
20260509224719 84 280 4.0 5.0 0.00 0.00 0.00 18 1011.8
20260509224216 83 262 2.0 5.0 0.00 0.00 0.00 19 1011.5
20260509223713 83 293 4.0 6.0 0.00 0.00 0.00 20 1011.8
20260509223211 83 287 4.0 9.0 0.00 0.00 0.00 19 1011.6
20260509222707 84 302 3.0 6.0 0.00 0.00 0.00 19 1011.7
20260509222203 83 237 3.0 6.0 0.00 0.00 0.00 19 1011.7
20260509221659 83 298 6.0 6.0 0.00 0.00 0.00 20 1011.6
20260509221155 83 294 4.0 6.0 0.00 0.00 0.00 19 1011.6
20260509220651 82 300 2.0 8.0 0.00 0.00 0.00 19 1011.6
20260509220142 79 288 5.0 5.0 0.00 0.00 0.00 20 1012.1
20260509215638 81 254 4.0 6.0 0.00 0.00 0.00 20 1011.9
20260509215135 80 303 2.0 6.0 0.00 0.00 0.00 19 1012.3
20260509214632 81 297 4.0 5.0 0.00 0.00 0.00 18 1012.1
20260509214128 83 287 6.0 7.0 0.00 0.00 0.00 18 1012.2
20260509213626 85 295 0.0 3.0 0.00 0.00 0.00 17 1012.3
20260509213121 82 291 4.0 9.0 0.00 0.00 0.00 19 1012.3
20260509212619 84 275 2.0 5.0 0.00 0.00 0.00 16 1012.3
20260509212116 84 308 3.0 5.0 0.00 0.00 0.00 19 1012.3
20260509211612 84 293 4.0 7.0 0.00 0.00 0.00 18 1012.1
20260509211109 83 294 7.0 9.0 0.00 0.00 0.00 18 1012.4
20260509210605 84 277 5.0 8.0 0.00 0.00 0.00 17 1012.4
20260509205601 84 284 5.0 9.0 0.00 0.00 0.00 19 1012.8
20260509205056 83 283 5.0 7.0 0.00 0.00 0.00 16 1012.5
20260509204553 83 285 4.0 6.0 0.00 0.00 0.00 20 1012.7
20260509204050 85 237 4.0 4.0 0.00 0.00 0.00 22 1012.4
20260509203546 83 259 3.0 8.0 0.00 0.00 0.00 19 1012.9
20260509203044 83 192 2.0 4.0 0.00 0.00 0.00 16 1012.5
20260509202538 81 283 5.0 11.0 0.00 0.00 0.00 16 1012.5
20260509202034 81 283 2.0 5.0 0.00 0.00 0.00 18 1012.4
20260509201529 83 266 0.0 6.0 0.00 0.00 0.00 19 1012.4
20260509201027 84 287 3.0 9.0 0.00 0.00 0.00 19 1012.9
20260509200521 82 284 2.0 5.0 0.00 0.00 0.00 19 1012.5
20260509200018 82 306 5.0 6.0 0.00 0.00 0.00 19 1012.8
20260509195514 82 294 4.0 5.0 0.00 0.00 0.00 20 1012.5
20260509195013 80 256 5.0 10.0 0.00 0.00 0.00 20 1012.7
20260509194509 79 287 3.0 5.0 0.00 0.00 0.00 19 1012.9
20260509194006 82 304 6.0 6.0 0.00 0.00 0.00 20 1013.0
20260509193501 83 288 4.0 4.0 0.00 0.00 0.00 20 1012.7
20260509192957 84 268 3.0 9.0 0.00 0.00 0.00 18 1012.8
20260509192454 83 264 3.0 4.0 0.00 0.00 0.00 21 1012.9
20260509191949 83 326 2.0 4.0 0.00 0.00 0.00 19 1012.7
20260509191444 82 352 3.0 6.0 0.00 0.00 0.00 17 1012.8
20260509190940 83 300 4.0 6.0 0.00 0.00 0.00 18 1012.8
20260509190438 84 266 3.0 6.0 0.00 0.00 0.00 20 1012.9
20260509185936 83 307 3.0 6.0 0.00 0.00 0.00 19 1012.8
20260509185433 81 288 2.0 5.0 0.00 0.00 0.00 21 1013.0
20260509184929 79 246 2.0 4.0 0.00 0.00 0.00 21 1012.7
20260509184427 80 296 4.0 7.0 0.00 0.00 0.00 19 1013.1
20260509183923 82 278 4.0 7.0 0.00 0.00 0.00 21 1012.9
20260509183422 81 220 6.0 12.0 0.00 0.00 0.00 20 1012.7
20260509182919 83 254 5.0 10.0 0.00 0.00 0.00 22 1012.8
20260509182416 83 279 2.0 6.0 0.00 0.00 0.00 22 1012.9
20260509181914 82 229 7.0 10.0 0.00 0.00 0.00 21 1013.2
20260509181411 82 232 1.0 8.0 0.00 0.00 0.00 19 1013.2
20260509180908 81 221 3.0 8.0 0.00 0.00 0.00 19 1013.1
20260509180403 80 156 2.0 9.0 0.00 0.00 0.00 19 1013.1
20260509175901 82 223 2.0 4.0 0.00 0.00 0.00 20 1013.5
20260509175357 82 260 1.0 5.0 0.00 0.00 0.00 22 1013.0
20260509174853 82 273 3.0 6.0 0.00 0.00 0.00 23 1013.2
20260509174344 81 212 1.0 4.0 0.00 0.00 0.00 23 1013.4
20260509173840 80 224 3.0 8.0 0.00 0.00 0.00 21 1013.5
20260509173335 80 173 1.0 4.0 0.00 0.00 0.00 23 1013.5
20260509172832 81 299 0.0 4.0 0.00 0.00 0.00 21 1013.7
20260509172328 80 260 1.0 5.0 0.00 0.00 0.00 20 1013.6
20260509171825 80 296 3.0 4.0 0.00 0.00 0.00 24 1013.6
20260509171320 81 319 2.0 3.0 0.00 0.00 0.00 24 1013.6
20260509170817 79 228 3.0 4.0 0.00 0.00 0.00 22 1013.5
20260509170313 79 298 3.0 4.0 0.00 0.00 0.00 24 1013.6
20260509165813 79 301 2.0 3.0 0.00 0.00 0.00 26 1013.6
20260509165307 79 280 2.0 3.0 0.00 0.00 0.00 26 1013.7
20260509164803 80 254 2.0 3.0 0.00 0.00 0.00 28 1013.5
20260509164259 77 224 2.0 4.0 0.00 0.00 0.00 27 1013.8
20260509163756 77 305 2.0 3.0 0.00 0.00 0.00 26 1013.7
20260509163252 76 274 1.0 3.0 0.00 0.00 0.00 31 1013.6
20260509162751 76 255 1.0 3.0 0.00 0.00 0.00 29 1013.6
20260509162245 75 319 1.0 2.0 0.00 0.00 0.00 29 1013.5
20260509161741 73 333 2.0 4.0 0.00 0.00 0.00 28 1013.6
20260509161232 72 285 2.0 4.0 0.00 0.00 0.00 28 1013.6
20260509160727 71 281 2.0 3.0 0.00 0.00 0.00 29 1013.6
20260509160224 71 254 0.0 3.0 0.00 0.00 0.00 30 1013.6
20260509155719 71 258 2.0 4.0 0.00 0.00 0.00 32 1013.4
20260509155216 68 311 3.0 3.0 0.00 0.00 0.00 35 1013.5
20260509154712 67 238 2.0 3.0 0.00 0.00 0.00 32 1013.5
20260509154209 67 311 0.0 4.0 0.00 0.00 0.00 36 1013.6
20260509153706 66 256 1.0 3.0 0.00 0.00 0.00 35 1013.5
20260509153202 65 308 2.0 4.0 0.00 0.00 0.00 36 1013.6
20260509152658 65 352 2.0 2.0 0.00 0.00 0.00 38 1013.6
20260509152155 64 324 1.0 3.0 0.00 0.00 0.00 37 1013.5
20260509151652 63 248 2.0 4.0 0.00 0.00 0.00 36 1013.6
20260509151149 62 183 1.0 2.0 0.00 0.00 0.00 34 1013.5
20260509150647 63 251 1.0 2.0 0.00 0.00 0.00 35 1013.6
20260509150145 63 329 0.0 1.0 0.00 0.00 0.00 38 1013.6
20260509145641 60 135 0.0 3.0 0.00 0.00 0.00 38 1013.9
20260509145136 60 130 2.0 2.0 0.00 0.00 0.00 37 1013.8
20260509144633 58 122 0.0 2.0 0.00 0.00 0.00 40 1013.7
20260509144130 58 130 2.0 2.0 0.00 0.00 0.00 39 1013.9
20260509143627 55 60 0.0 1.0 0.00 0.00 0.00 42 1013.7
20260509143125 54 30 2.0 3.0 0.00 0.00 0.00 44 1013.8
20260509142620 53 298 1.0 3.0 0.00 0.00 0.00 46 1013.9
20260509142117 50 336 0.0 2.0 0.00 0.00 0.00 49 1013.8
20260509141613 50 135 0.0 1.0 0.00 0.00 0.00 49 1013.8
20260509141109 49 333 0.0 3.0 0.00 0.00 0.00 51 1013.6
20260509140606 48 276 2.0 2.0 0.00 0.00 0.00 54 1013.5
20260509140104 47 42 1.0 2.0 0.00 0.00 0.00 55 1013.6
20260509135600 46 116 0.0 2.0 0.00 0.00 0.00 56 1013.2
20260509135059 45 336 0.0 2.0 0.00 0.00 0.00 54 1013.2
20260509134556 44 143 2.0 2.0 0.00 0.00 0.00 56 1013.4
20260509134053 42 139 2.0 3.0 0.00 0.00 0.00 60 1013.2
20260509133550 40 169 2.0 4.0 0.00 0.00 0.00 64 1013.0
20260509133047 38 146 2.0 2.0 0.00 0.00 0.00 65 1013.1
20260509132545 37 182 1.0 4.0 0.00 0.00 0.00 68 1013.1
20260509132043 37 151 1.0 2.0 0.00 0.00 0.00 68 1012.9
20260509131539 37 208 1.0 2.0 0.00 0.00 0.00 69 1012.9
20260509131036 36 70 1.0 1.0 0.00 0.00 0.00 73 1012.8
20260509130531 37 141 2.0 2.0 0.00 0.00 0.00 71 1012.8
20260509130023 37 209 1.0 2.0 0.00 0.00 0.00 74 1012.7
20260509125519 37 69 0.0 2.0 0.00 0.00 0.00 75 1012.7
20260509125015 37 249 2.0 2.0 0.00 0.00 0.00 75 1012.5
20260509124512 38 187 1.0 2.0 0.00 0.00 0.00 73 1012.4
20260509124009 41 194 2.0 3.0 0.00 0.00 0.00 65 1012.3
20260509123507 46 194 1.0 3.0 0.00 0.00 0.00 53 1012.3
20260509123003 44 123 2.0 3.0 0.00 0.00 0.00 50 1012.2
20260509122500 39 126 0.0 2.0 0.00 0.00 0.00 63 1012.3
20260509121957 38 224 0.0 2.0 0.00 0.00 0.00 66 1012.1
20260509121448 39 188 0.0 4.0 0.00 0.00 0.00 66 1012.3
20260509120946 42 161 0.0 3.0 0.00 0.00 0.00 58 1012.2
20260509120443 45 242 0.0 6.0 0.00 0.00 0.00 57 1012.2
20260509115936 47 132 5.0 5.0 0.00 0.00 0.00 44 1012.2
20260509115433 48 54 1.0 6.0 0.00 0.00 0.00 43 1012.3
20260509114930 48 52 5.0 6.0 0.00 0.00 0.00 43 1012.1
20260509114429 47 94 4.0 5.0 0.00 0.00 0.00 44 1012.2
20260509113928 47 107 2.0 3.0 0.00 0.00 0.00 45 1012.3
20260509113425 46 121 3.0 8.0 0.00 0.00 0.00 46 1012.2
20260509112921 42 53 4.0 4.0 0.00 0.00 0.00 53 1012.4
20260509112419 42 107 2.0 2.0 0.00 0.00 0.00 56 1012.3
20260509111915 42 243 1.0 2.0 0.00 0.00 0.00 57 1012.1
20260509111413 41 26 1.0 2.0 0.00 0.00 0.00 58 1011.9
20260509110910 41 238 2.0 4.0 0.00 0.00 0.00 59 1012.1
20260509110406 42 6 0.0 4.0 0.00 0.00 0.00 56 1012.1
20260509105904 47 257 2.0 6.0 0.00 0.00 0.00 48 1012.2
20260509105402 50 118 5.0 9.0 0.00 0.00 0.00 39 1012.2
20260509104859 50 114 6.0 8.0 0.00 0.00 0.00 39 1012.3
20260509104356 50 115 6.0 9.0 0.00 0.00 0.00 39 1012.2
20260509103853 51 99 5.0 10.0 0.00 0.00 0.00 38 1012.1
20260509103350 51 60 6.0 10.0 0.00 0.00 0.00 38 1012.4
20260509102849 51 40 2.0 10.0 0.00 0.00 0.00 38 1012.2
20260509102346 50 57 3.0 10.0 0.00 0.00 0.00 39 1011.9
20260509101842 50 62 4.0 5.0 0.00 0.00 0.00 40 1012.1
20260509101338 51 61 4.0 12.0 0.00 0.00 0.00 37 1012.2
20260509100836 51 77 3.0 10.0 0.00 0.00 0.00 38 1012.2
20260509100333 51 53 6.0 11.0 0.00 0.00 0.00 38 1012.2
20260509095829 51 82 5.0 12.0 0.00 0.00 0.00 38 1011.9
20260509095327 52 106 6.0 9.0 0.00 0.00 0.00 37 1011.9
20260509094824 52 66 4.0 11.0 0.00 0.00 0.00 38 1012.1
20260509094320 51 53 11.0 11.0 0.00 0.00 0.00 38 1012.1
20260509093818 51 99 5.0 5.0 0.00 0.00 0.00 39 1011.8
20260509093315 51 117 7.0 10.0 0.00 0.00 0.00 38 1011.8
20260509092814 52 69 10.0 13.0 0.00 0.00 0.00 37 1012.2
20260509092311 51 75 6.0 9.0 0.00 0.00 0.00 38 1011.9
20260509091809 51 109 5.0 7.0 0.00 0.00 0.00 39 1011.9
20260509091306 51 96 5.0 6.0 0.00 0.00 0.00 39 1011.9
20260509090803 51 61 8.0 11.0 0.00 0.00 0.00 38 1012.1
20260509090300 52 103 6.0 8.0 0.00 0.00 0.00 39 1011.9
20260509085757 52 102 3.0 7.0 0.00 0.00 0.00 38 1011.9
20260509085255 52 37 5.0 9.0 0.00 0.00 0.00 38 1011.7
20260509084751 52 102 9.0 10.0 0.00 0.00 0.00 38 1011.8
20260509084247 52 102 7.0 11.0 0.00 0.00 0.00 38 1011.9
20260509083746 52 76 7.0 9.0 0.00 0.00 0.00 39 1012.3
20260509083242 52 71 5.0 10.0 0.00 0.00 0.00 39 1012.1
20260509082739 52 76 7.0 10.0 0.00 0.00 0.00 38 1012.2
20260509082235 52 60 7.0 10.0 0.00 0.00 0.00 38 1012.1
20260509081732 52 73 5.0 9.0 0.00 0.00 0.00 39 1012.3
20260509081230 52 41 6.0 9.0 0.00 0.00 0.00 39 1011.9
20260509080728 52 83 4.0 8.0 0.00 0.00 0.00 40 1012.2
20260509080225 53 77 4.0 11.0 0.00 0.00 0.00 38 1012.3
20260509075723 53 64 5.0 7.0 0.00 0.00 0.00 37 1012.3
20260509075221 54 114 7.0 12.0 0.00 0.00 0.00 37 1012.4
20260509074718 53 62 6.0 9.0 0.00 0.00 0.00 37 1012.2
20260509074215 54 60 4.0 10.0 0.00 0.00 0.00 37 1012.2
20260509073711 53 104 7.0 11.0 0.00 0.00 0.00 37 1012.3
20260509073208 53 55 6.0 9.0 0.00 0.00 0.00 37 1012.3
20260509072704 53 102 5.0 11.0 0.00 0.00 0.00 37 1012.5
20260509072201 53 61 9.0 10.0 0.00 0.00 0.00 37 1012.3
20260509071658 54 79 4.0 10.0 0.00 0.00 0.00 37 1012.4
20260509071155 54 65 3.0 11.0 0.00 0.00 0.00 37 1012.3
20260509070652 54 76 6.0 8.0 0.00 0.00 0.00 37 1012.3
20260509070148 54 103 7.0 9.0 0.00 0.00 0.00 37 1012.3
20260509065644 54 125 9.0 10.0 0.00 0.00 0.00 37 1012.2
20260509065141 55 106 9.0 13.0 0.00 0.00 0.00 36 1012.3
20260509064638 54 38 7.0 10.0 0.00 0.00 0.00 36 1012.4
20260509064136 55 119 8.0 13.0 0.00 0.00 0.00 36 1012.2
20260509063632 55 107 5.0 12.0 0.00 0.00 0.00 36 1012.4
20260509063129 55 111 5.0 10.0 0.00 0.00 0.00 36 1012.5
20260509062626 55 91 6.0 9.0 0.00 0.00 0.00 36 1012.4
20260509062123 55 66 8.0 11.0 0.00 0.00 0.00 36 1012.3
20260509061619 56 55 5.0 10.0 0.00 0.00 0.00 35 1012.4
20260509061117 56 87 6.0 12.0 0.00 0.00 0.00 35 1012.4
20260509060614 56 64 6.0 12.0 0.00 0.00 0.00 35 1012.5
20260509060109 57 89 4.0 12.0 0.00 0.00 0.00 35 1012.3
20260509055605 57 70 5.0 10.0 0.00 0.00 0.00 35 1012.3
20260509055101 56 42 5.0 11.0 0.00 0.00 0.00 34 1012.4
20260509054558 57 45 8.0 10.0 0.00 0.00 0.00 34 1012.5
20260509054056 57 109 6.0 12.0 0.00 0.00 0.00 34 1012.5
20260509053554 57 81 4.0 11.0 0.00 0.00 0.00 34 1012.4
20260509053051 57 47 8.0 12.0 0.00 0.00 0.00 33 1012.3
20260509052549 57 63 6.0 11.0 0.00 0.00 0.00 34 1012.3
20260509052047 58 39 7.0 10.0 0.00 0.00 0.00 34 1012.3
20260509051544 58 72 5.0 9.0 0.00 0.00 0.00 33 1012.5
20260509051041 58 65 6.0 9.0 0.00 0.00 0.00 33 1012.5
20260509050538 58 54 5.0 9.0 0.00 0.00 0.00 33 1012.4
20260509050034 59 63 7.0 8.0 0.00 0.00 0.00 33 1012.7
20260509045532 59 75 4.0 9.0 0.00 0.00 0.00 32 1012.8
20260509045028 59 53 9.0 10.0 0.00 0.00 0.00 32 1012.4
20260509044526 60 39 6.0 9.0 0.00 0.00 0.00 32 1012.4
20260509044024 60 63 4.0 6.0 0.00 0.00 0.00 32 1012.4
20260509043520 60 78 5.0 8.0 0.00 0.00 0.00 32 1012.3
20260509043016 60 54 4.0 9.0 0.00 0.00 0.00 32 1012.2
20260509042512 60 31 5.0 8.0 0.00 0.00 0.00 32 1012.3
20260509042008 60 70 4.0 6.0 0.00 0.00 0.00 32 1012.3
20260509041505 61 42 7.0 9.0 0.00 0.00 0.00 31 1012.2
20260509041003 61 51 4.0 6.0 0.00 0.00 0.00 31 1012.3
20260509040501 60 46 5.0 6.0 0.00 0.00 0.00 32 1012.1
20260509035957 60 23 2.0 5.0 0.00 0.00 0.00 33 1012.1
20260509035454 60 41 4.0 5.0 0.00 0.00 0.00 33 1011.8
20260509034950 60 61 4.0 4.0 0.00 0.00 0.00 33 1011.8
20260509034449 61 51 2.0 5.0 0.00 0.00 0.00 33 1012.1
20260509033945 61 32 2.0 4.0 0.00 0.00 0.00 33 1011.7
20260509033442 60 73 3.0 3.0 0.00 0.00 0.00 35 1011.5
20260509032939 61 49 2.0 4.0 0.00 0.00 0.00 33 1011.6
20260509032436 61 61 2.0 2.0 0.00 0.00 0.00 34 1011.7
20260509031934 62 18 3.0 3.0 0.00 0.00 0.00 32 1011.6
20260509031431 63 50 2.0 3.0 0.00 0.00 0.00 34 1011.2
20260509030929 63 51 3.0 3.0 0.00 0.00 0.00 33 1011.4
20260509030427 64 43 3.0 3.0 0.00 0.00 0.00 32 1011.2
20260509025923 64 50 2.0 2.0 0.00 0.00 0.00 31 1011.1
20260509025419 65 77 1.0 2.0 0.00 0.00 0.00 31 1011.1
20260509024914 66 41 1.0 2.0 0.00 0.00 0.00 28 1011.2
20260509024411 67 34 2.0 2.0 0.00 0.00 0.00 28 1011.0
20260509023908 68 29 1.0 2.0 0.00 0.00 0.00 29 1010.8
20260509023405 68 2 2.0 2.0 0.00 0.00 0.00 25 1010.9
20260509022901 69 356 1.0 2.0 0.00 0.00 0.00 25 1010.8
20260509022359 70 309 0.0 1.0 0.00 0.00 0.00 23 1010.7
20260509021856 71 326 0.0 3.0 0.00 0.00 0.00 24 1010.7
20260509021352 72 273 3.0 4.0 0.00 0.00 0.00 24 1010.8
20260509020850 72 257 4.0 5.0 0.00 0.00 0.00 23 1010.8
20260509020349 73 282 2.0 7.0 0.00 0.00 0.00 23 1010.7
20260509015845 73 283 2.0 4.0 0.00 0.00 0.00 22 1010.5
20260509015343 73 308 1.0 3.0 0.00 0.00 0.00 22 1010.8
20260509014840 74 288 2.0 6.0 0.00 0.00 0.00 23 1010.3
20260509014337 74 283 0.0 2.0 0.00 0.00 0.00 23 1010.4
20260509013833 75 206 2.0 6.0 0.00 0.00 0.00 22 1010.4
20260509013331 75 277 2.0 4.0 0.00 0.00 0.00 24 1010.4
20260509012826 75 265 2.0 3.0 0.00 0.00 0.00 22 1010.5
20260509012323 75 253 2.0 4.0 0.00 0.00 0.00 22 1010.3
20260509011821 76 189 2.0 5.0 0.00 0.00 0.00 22 1010.4
20260509011318 77 273 2.0 2.0 0.00 0.00 0.00 23 1010.5
20260509010815 77 240 5.0 12.0 0.00 0.00 0.00 20 1010.3
20260509010312 78 286 2.0 4.0 0.00 0.00 0.00 20 1010.5
20260509005809 78 199 2.0 5.0 0.00 0.00 0.00 20 1010.5
20260509005307 79 302 5.0 6.0 0.00 0.00 0.00 19 1010.7
20260509004802 78 312 4.0 5.0 0.00 0.00 0.00 20 1010.9